Time,TemperatureF,DewpointF,PressureIn,WindDirection,WindDirectionDegrees,WindSpeedMPH,WindSpeedGustMPH,Humidity,HourlyPrecipIn,Conditions,Clouds,dailyrainin,SoftwareType,DateUTC
2013-01-30 00:15:00,73.4,63.0,30.13,ESE,106,0.0,16.0,71,0.00,,,0.00,weatherlink.com 1.10,2013-01-30 05:15:00,
2013-01-30 00:31:00,73.4,63.0,30.12,SE,135,9.0,16.0,71,0.00,,,0.00,weatherlink.com 1.10,2013-01-30 05:31:00,
2013-01-30 00:45:00,73.4,64.0,30.12,ESE,107,9.0,15.0,72,0.00,,,0.00,weatherlink.com 1.10,2013-01-30 05:45:00,
2013-01-30 01:00:00,73.4,64.0,30.11,SSE,158,7.0,17.0,73,0.00,,,0.00,weatherlink.com 1.10,2013-01-30 06:00:00,
2013-01-30 01:15:00,73.2,64.0,30.10,ESE,105,9.0,14.0,74,0.00,,,0.00,weatherlink.com 1.10,2013-01-30 06:15:00,
2013-01-30 01:30:00,73.2,64.0,30.11,SSE,154,9.0,17.0,74,0.00,,,0.00,weatherlink.com 1.10,2013-01-30 06:30:00,
2013-01-30 01:45:00,73.4,64.0,30.11,SE,125,5.0,16.0,73,0.00,,,0.00,weatherlink.com 1.10,2013-01-30 06:45:00,
2013-01-30 02:00:00,73.4,65.0,30.11,SE,141,7.0,16.0,74,0.00,,,0.00,weatherlink.com 1.10,2013-01-30 07:00:00,
2013-01-30 02:15:00,73.2,64.0,30.11,ESE,123,7.0,16.0,73,0.00,,,0.00,weatherlink.com 1.10,2013-01-30 07:15:00,
2013-01-30 02:30:00,73.2,64.0,30.11,SE,138,0.0,13.0,74,0.00,,,0.00,weatherlink.com 1.10,2013-01-30 07:30:00,
2013-01-30 02:45:00,73.2,64.0,30.11,SE,135,10.0,17.0,74,0.00,,,0.00,weatherlink.com 1.10,2013-01-30 07:45:00,
2013-01-30 03:00:00,73.1,64.0,30.10,SSE,152,2.0,17.0,74,0.00,,,0.00,weatherlink.com 1.10,2013-01-30 08:00:00,
2013-01-30 03:15:00,73.1,64.0,30.10,SSE,156,3.0,11.0,74,0.00,,,0.00,weatherlink.com 1.10,2013-01-30 08:15:00,
2013-01-30 03:30:00,73.2,64.0,30.10,SE,140,4.0,13.0,74,0.00,,,0.00,weatherlink.com 1.10,2013-01-30 08:30:00,
2013-01-30 03:45:00,73.1,64.0,30.10,SE,143,5.0,12.0,74,0.00,,,0.00,weatherlink.com 1.10,2013-01-30 08:45:00,
2013-01-30 04:00:00,73.1,65.0,30.10,SE,139,8.0,13.0,75,0.00,,,0.00,weatherlink.com 1.10,2013-01-30 09:00:00,
2013-01-30 04:15:00,72.9,65.0,30.10,SE,137,0.0,11.0,75,0.00,,,0.00,weatherlink.com 1.10,2013-01-30 09:15:00,
2013-01-30 04:30:00,72.7,64.0,30.09,SE,131,0.0,14.0,74,0.00,,,0.00,weatherlink.com 1.10,2013-01-30 09:30:00,
2013-01-30 04:45:00,72.9,64.0,30.09,SSE,147,3.0,17.0,74,0.00,,,0.00,weatherlink.com 1.10,2013-01-30 09:45:00,
2013-01-30 05:00:00,72.7,64.0,30.08,SE,130,4.0,17.0,74,0.00,,,0.00,weatherlink.com 1.10,2013-01-30 10:00:00,
2013-01-30 05:15:00,72.7,64.0,30.08,ESE,121,4.0,15.0,74,0.00,,,0.00,weatherlink.com 1.10,2013-01-30 10:15:00,
2013-01-30 05:30:00,72.7,64.0,30.08,SE,131,0.0,15.0,74,0.00,,,0.00,weatherlink.com 1.10,2013-01-30 10:30:00,
2013-01-30 05:45:00,72.6,63.0,30.09,SE,137,3.0,15.0,73,0.00,,,0.00,weatherlink.com 1.10,2013-01-30 10:45:00,
2013-01-30 06:00:00,72.6,63.0,30.09,ESE,115,3.0,16.0,73,0.00,,,0.00,weatherlink.com 1.10,2013-01-30 11:00:00,
2013-01-30 06:15:00,72.7,64.0,30.10,ESE,110,9.0,12.0,73,0.00,,,0.00,weatherlink.com 1.10,2013-01-30 11:15:00,
2013-01-30 06:30:00,72.6,63.0,30.10,SSE,149,2.0,9.0,73,0.00,,,0.00,weatherlink.com 1.10,2013-01-30 11:30:00,
2013-01-30 06:45:00,72.4,63.0,30.10,SE,134,4.0,14.0,73,0.00,,,0.00,weatherlink.com 1.10,2013-01-30 11:45:00,
2013-01-30 07:00:00,72.6,63.0,30.10,SE,128,0.0,11.0,73,0.00,,,0.00,weatherlink.com 1.10,2013-01-30 12:00:00,
2013-01-30 07:15:00,72.6,64.0,30.10,SSE,151,2.0,12.0,74,0.00,,,0.00,weatherlink.com 1.10,2013-01-30 12:15:00,
2013-01-30 07:30:00,72.7,64.0,30.10,SSE,148,5.0,9.0,74,0.00,,,0.00,weatherlink.com 1.10,2013-01-30 12:30:00,
2013-01-30 07:45:00,73.1,64.0,30.10,SSE,151,0.0,8.0,74,0.00,,,0.00,weatherlink.com 1.10,2013-01-30 12:45:00,
2013-01-30 08:00:00,73.6,64.0,30.10,SSE,156,6.0,14.0,71,0.00,,,0.00,weatherlink.com 1.10,2013-01-30 13:00:00,
2013-01-30 08:15:00,74.1,63.0,30.10,SE,146,7.0,16.0,69,0.00,,,0.00,weatherlink.com 1.10,2013-01-30 13:15:00,
2013-01-30 08:30:00,74.3,63.0,30.10,SE,133,3.0,13.0,68,0.00,,,0.00,weatherlink.com 1.10,2013-01-30 13:30:00,
2013-01-30 08:45:00,75.0,63.0,30.10,ESE,122,7.0,17.0,66,0.00,,,0.00,weatherlink.com 1.10,2013-01-30 13:45:00,
2013-01-30 09:00:00,74.8,63.0,30.10,SSE,151,1.0,17.0,67,0.00,,,0.00,weatherlink.com 1.10,2013-01-30 14:00:00,
2013-01-30 09:15:00,75.7,64.0,30.10,SSE,162,0.0,16.0,66,0.00,,,0.00,weatherlink.com 1.10,2013-01-30 14:15:00,
2013-01-30 09:30:00,75.3,63.0,30.11,South,175,2.0,20.0,66,0.00,,,0.00,weatherlink.com 1.10,2013-01-30 14:30:00,
2013-01-30 09:45:00,75.7,64.0,30.11,South,172,10.0,20.0,67,0.00,,,0.00,weatherlink.com 1.10,2013-01-30 14:45:00,
2013-01-30 10:00:00,76.0,64.0,30.10,South,184,9.0,14.0,66,0.00,,,0.00,weatherlink.com 1.10,2013-01-30 15:00:00,
2013-01-30 10:15:00,75.9,64.0,30.10,South,170,1.0,18.0,66,0.00,,,0.00,weatherlink.com 1.10,2013-01-30 15:15:00,
2013-01-30 10:30:00,75.9,64.0,30.10,SE,137,12.0,20.0,66,0.00,,,0.00,weatherlink.com 1.10,2013-01-30 15:30:00,
2013-01-30 10:45:00,76.4,64.0,30.08,South,174,0.0,22.0,65,0.00,,,0.00,weatherlink.com 1.10,2013-01-30 15:45:00,
2013-01-30 11:00:00,76.6,64.0,30.07,SE,139,8.0,18.0,66,0.00,,,0.00,weatherlink.com 1.10,2013-01-30 16:00:00,
2013-01-30 11:15:00,76.7,65.0,30.07,SSE,158,1.0,17.0,67,0.00,,,0.00,weatherlink.com 1.10,2013-01-30 16:15:00,
2013-01-30 11:30:00,76.7,65.0,30.07,SSE,167,3.0,17.0,67,0.00,,,0.00,weatherlink.com 1.10,2013-01-30 16:30:00,
2013-01-30 11:45:00,77.3,65.0,30.06,SSE,162,8.0,20.0,66,0.00,,,0.00,weatherlink.com 1.10,2013-01-30 16:45:00,
2013-01-30 12:00:00,77.8,65.0,30.05,SSE,147,7.0,19.0,65,0.00,,,0.00,weatherlink.com 1.10,2013-01-30 17:00:00,
2013-01-30 12:15:00,77.5,65.0,30.04,South,188,3.0,16.0,66,0.00,,,0.00,weatherlink.com 1.10,2013-01-30 17:15:00,
2013-01-30 12:30:00,77.3,65.0,30.02,South,180,1.0,22.0,67,0.00,,,0.00,weatherlink.com 1.10,2013-01-30 17:30:00,
2013-01-30 12:46:00,77.3,65.0,30.01,SSE,160,5.0,18.0,67,0.00,,,0.00,weatherlink.com 1.10,2013-01-30 17:46:00,
2013-01-30 13:01:00,77.6,66.0,30.00,South,176,6.0,21.0,67,0.00,,,0.00,weatherlink.com 1.10,2013-01-30 18:01:00,
2013-01-30 13:15:00,77.3,66.0,30.00,SE,146,4.0,22.0,68,0.00,,,0.00,weatherlink.com 1.10,2013-01-30 18:15:00,
2013-01-30 13:30:00,77.3,66.0,29.99,SSW,208,4.0,19.0,68,0.00,,,0.00,weatherlink.com 1.10,2013-01-30 18:30:00,
2013-01-30 13:46:00,77.1,66.0,29.99,SSE,159,11.0,19.0,68,0.00,,,0.00,weatherlink.com 1.10,2013-01-30 18:46:00,
2013-01-30 14:01:00,76.6,66.0,29.98,South,175,8.0,23.0,69,0.00,,,0.00,weatherlink.com 1.10,2013-01-30 19:01:00,
2013-01-30 14:16:00,77.1,66.0,29.98,SSE,154,7.0,19.0,69,0.00,,,0.00,weatherlink.com 1.10,2013-01-30 19:16:00,
2013-01-30 14:31:00,76.9,66.0,29.98,South,179,3.0,18.0,68,0.00,,,0.00,weatherlink.com 1.10,2013-01-30 19:31:00,
2013-01-30 14:46:00,76.6,65.0,29.98,South,176,2.0,23.0,68,0.00,,,0.00,weatherlink.com 1.10,2013-01-30 19:46:00,
2013-01-30 15:01:00,76.7,66.0,29.98,SE,133,5.0,21.0,70,0.00,,,0.00,weatherlink.com 1.10,2013-01-30 20:01:00,
2013-01-30 15:16:00,77.3,65.0,29.99,South,177,3.0,18.0,66,0.00,,,0.00,weatherlink.com 1.10,2013-01-30 20:16:00,
2013-01-30 15:31:00,76.9,65.0,30.00,SW,217,4.0,21.0,67,0.00,,,0.00,weatherlink.com 1.10,2013-01-30 20:31:00,
2013-01-30 15:46:00,77.5,65.0,29.99,ESE,117,4.0,18.0,66,0.00,,,0.00,weatherlink.com 1.10,2013-01-30 20:46:00,
2013-01-30 16:01:00,77.6,66.0,30.00,South,183,2.0,9.0,67,0.00,,,0.00,weatherlink.com 1.10,2013-01-30 21:01:00,
2013-01-30 16:16:00,77.6,65.0,30.01,South,181,1.0,14.0,66,0.00,,,0.00,weatherlink.com 1.10,2013-01-30 21:16:00,
2013-01-30 16:31:00,77.3,65.0,30.02,South,181,2.0,15.0,67,0.00,,,0.00,weatherlink.com 1.10,2013-01-30 21:31:00,
2013-01-30 16:46:00,77.3,66.0,30.02,South,189,5.0,8.0,68,0.00,,,0.00,weatherlink.com 1.10,2013-01-30 21:46:00,
2013-01-30 17:01:00,77.3,66.0,30.02,South,189,1.0,7.0,69,0.00,,,0.00,weatherlink.com 1.10,2013-01-30 22:01:00,
2013-01-30 17:16:00,77.3,66.0,30.01,South,177,0.0,9.0,68,0.00,,,0.00,weatherlink.com 1.10,2013-01-30 22:16:00,
2013-01-30 17:31:00,77.1,66.0,30.01,SSE,165,6.0,11.0,69,0.00,,,0.00,weatherlink.com 1.10,2013-01-30 22:31:00,
2013-01-30 17:46:00,76.6,67.0,30.01,South,177,1.0,11.0,71,0.00,,,0.00,weatherlink.com 1.10,2013-01-30 22:46:00,
2013-01-30 18:01:00,76.0,66.0,29.99,South,173,5.0,14.0,72,0.00,,,0.00,weatherlink.com 1.10,2013-01-30 23:01:00,
2013-01-30 18:16:00,75.7,66.0,29.99,South,173,4.0,9.0,73,0.00,,,0.00,weatherlink.com 1.10,2013-01-30 23:16:00,
2013-01-30 18:31:00,75.5,67.0,29.99,South,169,0.0,7.0,74,0.00,,,0.00,weatherlink.com 1.10,2013-01-30 23:31:00,
2013-01-30 18:46:00,75.2,67.0,29.99,South,191,0.0,8.0,75,0.00,,,0.00,weatherlink.com 1.10,2013-01-30 23:46:00,
2013-01-30 19:02:00,75.0,67.0,29.99,South,187,0.0,7.0,76,0.00,,,0.00,weatherlink.com 1.10,2013-01-31 00:02:00,
2013-01-30 19:16:00,74.6,67.0,30.00,South,181,1.0,6.0,77,0.00,,,0.00,weatherlink.com 1.10,2013-01-31 00:16:00,
2013-01-30 19:31:00,74.5,67.0,30.00,South,175,1.0,7.0,78,0.00,,,0.00,weatherlink.com 1.10,2013-01-31 00:31:00,
2013-01-30 19:46:00,74.3,67.0,30.00,South,175,0.0,5.0,78,0.00,,,0.00,weatherlink.com 1.10,2013-01-31 00:46:00,
2013-01-30 20:01:00,74.3,67.0,30.00,South,175,0.0,3.0,79,0.00,,,0.00,weatherlink.com 1.10,2013-01-31 01:01:00,
2013-01-30 20:16:00,73.9,67.0,30.00,South,175,0.0,0.0,80,0.00,,,0.00,weatherlink.com 1.10,2013-01-31 01:16:00,
2013-01-30 20:31:00,73.8,68.0,30.00,South,175,0.0,0.0,81,0.00,,,0.00,weatherlink.com 1.10,2013-01-31 01:31:00,
2013-01-30 20:46:00,73.8,68.0,30.01,South,175,0.0,1.0,81,0.00,,,0.00,weatherlink.com 1.10,2013-01-31 01:46:00,
2013-01-30 21:01:00,73.6,68.0,30.01,South,175,0.0,0.0,82,0.00,,,0.00,weatherlink.com 1.10,2013-01-31 02:01:00,
2013-01-30 21:16:00,73.4,68.0,30.01,South,175,0.0,0.0,82,0.00,,,0.00,weatherlink.com 1.10,2013-01-31 02:16:00,
2013-01-30 21:31:00,73.4,68.0,30.01,South,174,0.0,5.0,82,0.00,,,0.00,weatherlink.com 1.10,2013-01-31 02:31:00,
2013-01-30 21:46:00,73.2,68.0,30.01,South,175,0.0,4.0,83,0.00,,,0.00,weatherlink.com 1.10,2013-01-31 02:46:00,
2013-01-30 22:01:00,73.1,68.0,30.02,South,172,2.0,6.0,84,0.00,,,0.00,weatherlink.com 1.10,2013-01-31 03:01:00,
2013-01-30 22:16:00,72.9,68.0,30.02,South,172,0.0,0.0,84,0.00,,,0.00,weatherlink.com 1.10,2013-01-31 03:16:00,
2013-01-30 22:31:00,72.9,68.0,30.01,South,173,0.0,4.0,84,0.00,,,0.00,weatherlink.com 1.10,2013-01-31 03:31:00,
2013-01-30 22:46:00,72.7,68.0,30.01,South,171,0.0,8.0,84,0.00,,,0.00,weatherlink.com 1.10,2013-01-31 03:46:00,
2013-01-30 23:01:00,72.9,68.0,30.01,SSE,166,2.0,8.0,84,0.00,,,0.00,weatherlink.com 1.10,2013-01-31 04:01:00,
2013-01-30 23:16:00,72.9,68.0,30.01,SSE,168,0.0,6.0,84,0.00,,,0.00,weatherlink.com 1.10,2013-01-31 04:16:00,
2013-01-30 23:31:00,72.9,68.0,30.01,South,171,0.0,0.0,84,0.00,,,0.00,weatherlink.com 1.10,2013-01-31 04:31:00,
2013-01-30 23:48:00,72.9,68.0,30.01,South,173,3.0,7.0,84,0.00,,,0.00,weatherlink.com 1.10,2013-01-31 04:48:00,